Starlink 3299

operational
NORAD ID: 50831 Int'l Des: 2022-001 Owner: SPXS Country: US Constellation: starlink
LEOCIRCULAR

About Starlink 3299

Description loading...

Live Position

Loading 3D Globe...

Upcoming Passes

Altitude History

Altitude vs Time

uPlot chart will show altitude changes over time

Two-Line Element Set

1 50831U 22001AE 26036.20462434 .00001278 00000-0 98369-4 0 9991
2 50831 53.2183 315.0179 0001622 78.9158 281.2016 15.08836763225507
Epoch: Feb 5, 2026 • Age: 8 hours

Current Status

Altitude 551.0 km
Velocity 7.59 km/s
Sub-Earth Point -33.85°S, 42.01°W
Launch Date Jan 6, 2022
Age 4 years
Type internet

Technical Details

Classification Payload
Mass 297.00 kg
Dry Mass 275.00 kg
Total Mass 297.00 kg
Length 0.20 m
Diameter 2.80 m
Span 9.00 m
Shape Box + pan
Manufacturer SPXS
Bus Type Starlink
Phase Status In Orbit
Owner/State SPXS/US

Large Constellations

Loading constellations...